Year,Month,Day,Hour,Minute,Value (Times are PST for temperature in C)
2015,11,14,00,00,9.40
2015,11,14,00,01,9.40
2015,11,14,00,02,9.40
2015,11,14,00,03,9.40
2015,11,14,00,04,9.40
2015,11,14,00,05,9.40
2015,11,14,00,06,9.40
2015,11,14,00,07,9.40
2015,11,14,00,08,9.40
2015,11,14,00,09,9.40
2015,11,14,00,10,9.40
2015,11,14,00,11,9.40
2015,11,14,00,12,9.40
2015,11,14,00,13,9.40
2015,11,14,00,14,9.40
2015,11,14,00,15,9.40
2015,11,14,00,16,9.40
2015,11,14,00,17,9.40
2015,11,14,00,18,9.40
2015,11,14,00,19,9.40
2015,11,14,00,20,9.40
2015,11,14,00,21,9.40
2015,11,14,00,22,9.40
2015,11,14,00,23,9.50
2015,11,14,00,24,9.50
2015,11,14,00,25,9.50
2015,11,14,00,26,9.50
2015,11,14,00,27,9.50
2015,11,14,00,28,9.50
2015,11,14,00,29,9.50
2015,11,14,00,30,9.50
2015,11,14,00,31,9.50
2015,11,14,00,32,9.50
2015,11,14,00,33,9.50
2015,11,14,00,34,9.50
2015,11,14,00,35,9.50
2015,11,14,00,36,9.50
2015,11,14,00,37,9.40
2015,11,14,00,38,9.40
2015,11,14,00,39,9.40
2015,11,14,00,40,9.40
2015,11,14,00,41,9.40
2015,11,14,00,42,9.40
2015,11,14,00,43,9.40
2015,11,14,00,44,9.40
2015,11,14,00,45,9.40
2015,11,14,00,46,9.40
2015,11,14,00,47,9.40
2015,11,14,00,48,9.40
2015,11,14,00,49,9.40
2015,11,14,00,50,9.40
2015,11,14,00,51,9.40
2015,11,14,00,52,9.40
2015,11,14,00,53,9.30
2015,11,14,00,54,9.30
2015,11,14,00,55,9.30
2015,11,14,00,56,9.30
2015,11,14,00,57,9.30
2015,11,14,00,58,9.30
2015,11,14,00,59,9.30
2015,11,14,01,00,9.30
2015,11,14,01,01,9.30
2015,11,14,01,02,9.20
2015,11,14,01,03,9.20
2015,11,14,01,04,9.20
2015,11,14,01,05,9.20
2015,11,14,01,06,9.20
2015,11,14,01,07,9.20
2015,11,14,01,08,9.20
2015,11,14,01,09,9.20
2015,11,14,01,10,9.20
2015,11,14,01,11,9.10
2015,11,14,01,12,9.10
2015,11,14,01,13,9.10
2015,11,14,01,14,9.10
2015,11,14,01,15,9.10
2015,11,14,01,16,9.10
2015,11,14,01,17,9.10
2015,11,14,01,18,9.10
2015,11,14,01,19,9.10
2015,11,14,01,20,9.10
2015,11,14,01,21,9.10
2015,11,14,01,22,9.10
2015,11,14,01,23,9.10
2015,11,14,01,24,9.10
2015,11,14,01,25,9.10
2015,11,14,01,26,9.10
2015,11,14,01,27,9.10
2015,11,14,01,28,9.10
2015,11,14,01,29,9.10
2015,11,14,01,30,9.10
2015,11,14,01,31,9.10
2015,11,14,01,32,9.00
2015,11,14,01,33,9.00
2015,11,14,01,34,9.00
2015,11,14,01,35,9.00
2015,11,14,01,36,9.00
2015,11,14,01,37,9.00
2015,11,14,01,38,9.00
2015,11,14,01,39,9.00
2015,11,14,01,40,9.00
2015,11,14,01,41,9.00
2015,11,14,01,42,8.90
2015,11,14,01,43,8.90
2015,11,14,01,44,8.90
2015,11,14,01,45,8.90
2015,11,14,01,46,8.90
2015,11,14,01,47,8.90
2015,11,14,01,48,8.90
2015,11,14,01,49,8.90
2015,11,14,01,50,8.90
2015,11,14,01,51,8.90
2015,11,14,01,52,8.90
2015,11,14,01,53,8.90
2015,11,14,01,54,8.90
2015,11,14,01,55,8.90
2015,11,14,01,56,8.80
2015,11,14,01,57,8.80
2015,11,14,01,58,8.80
2015,11,14,01,59,8.80
2015,11,14,02,00,8.80
2015,11,14,02,01,8.80
2015,11,14,02,02,8.80
2015,11,14,02,03,8.80
2015,11,14,02,04,8.80
2015,11,14,02,05,8.80
2015,11,14,02,06,8.80
2015,11,14,02,07,8.80
2015,11,14,02,08,8.80
2015,11,14,02,09,8.80
2015,11,14,02,10,8.80
2015,11,14,02,11,8.80
2015,11,14,02,12,8.70
2015,11,14,02,13,8.70
2015,11,14,02,14,8.70
2015,11,14,02,15,8.70
2015,11,14,02,16,8.70
2015,11,14,02,17,8.70
2015,11,14,02,18,8.70
2015,11,14,02,19,8.70
2015,11,14,02,20,8.70
2015,11,14,02,21,8.70
2015,11,14,02,22,8.70
2015,11,14,02,23,8.70
2015,11,14,02,24,8.70
2015,11,14,02,25,8.70
2015,11,14,02,26,8.70
2015,11,14,02,27,8.70
2015,11,14,02,28,8.70
2015,11,14,02,29,8.70
2015,11,14,02,30,8.70
2015,11,14,02,31,8.70
2015,11,14,02,32,8.70
2015,11,14,02,33,8.70
2015,11,14,02,34,8.70
2015,11,14,02,35,8.70
2015,11,14,02,36,8.60
2015,11,14,02,37,8.70
2015,11,14,02,38,8.60
2015,11,14,02,39,8.60
2015,11,14,02,40,8.60
2015,11,14,02,41,8.60
2015,11,14,02,42,8.60
2015,11,14,02,43,8.60
2015,11,14,02,44,8.60
2015,11,14,02,45,8.60
2015,11,14,02,46,8.60
2015,11,14,02,47,8.60
2015,11,14,02,48,8.60
2015,11,14,02,49,8.60
2015,11,14,02,50,8.60
2015,11,14,02,51,8.60
2015,11,14,02,52,8.60
2015,11,14,02,53,8.60
2015,11,14,02,54,8.60
2015,11,14,02,55,8.60
2015,11,14,02,56,8.60
2015,11,14,02,57,8.60
2015,11,14,02,58,8.50
2015,11,14,02,59,8.50
2015,11,14,03,00,8.50
2015,11,14,03,01,8.50
2015,11,14,03,02,8.50
2015,11,14,03,03,8.50
2015,11,14,03,04,8.50
2015,11,14,03,05,8.50
2015,11,14,03,06,8.50
2015,11,14,03,07,8.50
2015,11,14,03,08,8.50
2015,11,14,04,16,8.30
2015,11,14,04,17,8.30
2015,11,14,04,18,8.30
2015,11,14,04,19,8.30
2015,11,14,04,20,8.30
2015,11,14,04,21,8.30
2015,11,14,04,22,8.30
2015,11,14,04,23,8.30
2015,11,14,04,24,8.30
2015,11,14,04,25,8.30
2015,11,14,04,26,8.30
2015,11,14,04,27,8.30
2015,11,14,04,28,8.30
2015,11,14,04,29,8.30
2015,11,14,04,30,8.30
2015,11,14,04,31,8.30
2015,11,14,04,32,8.30
2015,11,14,04,33,8.30
2015,11,14,04,34,8.30
2015,11,14,04,35,8.30
2015,11,14,04,36,8.30
2015,11,14,04,37,8.30
2015,11,14,04,38,8.30
2015,11,14,04,39,8.30
2015,11,14,04,40,8.30
2015,11,14,04,41,8.30
2015,11,14,04,42,8.30
2015,11,14,04,43,8.30
2015,11,14,04,44,8.30
2015,11,14,04,45,8.30
2015,11,14,04,46,8.30
2015,11,14,04,47,8.30
2015,11,14,04,48,8.30
2015,11,14,04,49,8.30
2015,11,14,04,50,8.30
2015,11,14,04,51,8.30
2015,11,14,04,52,8.30
2015,11,14,04,53,8.30
2015,11,14,04,54,8.30
2015,11,14,04,55,8.30
2015,11,14,04,56,8.30
2015,11,14,04,57,8.30
2015,11,14,04,58,8.30
2015,11,14,04,59,8.30
2015,11,14,05,00,8.30
2015,11,14,05,01,8.30
2015,11,14,05,02,8.30
2015,11,14,05,03,8.30
2015,11,14,05,04,8.30
2015,11,14,05,05,8.30
2015,11,14,05,06,8.30
2015,11,14,05,07,8.30
2015,11,14,05,08,8.30
2015,11,14,05,09,8.30
2015,11,14,05,10,8.30
2015,11,14,05,11,8.30
2015,11,14,05,12,8.30
2015,11,14,05,13,8.30
2015,11,14,05,14,8.30
2015,11,14,05,15,8.30
2015,11,14,05,16,8.30
2015,11,14,05,17,8.30
2015,11,14,05,18,8.30
2015,11,14,05,19,8.30
2015,11,14,05,20,8.30
2015,11,14,05,21,8.30
2015,11,14,05,22,8.30
2015,11,14,05,23,8.30
2015,11,14,05,24,8.30
2015,11,14,05,25,8.30
2015,11,14,05,26,8.30
2015,11,14,05,27,8.30
2015,11,14,05,28,8.20
2015,11,14,05,29,8.20
2015,11,14,05,30,8.20
2015,11,14,05,31,8.20
2015,11,14,05,32,8.20
2015,11,14,05,33,8.20
2015,11,14,05,34,8.20
2015,11,14,05,35,8.20
2015,11,14,05,36,8.20
2015,11,14,05,37,8.20
2015,11,14,05,38,8.20
2015,11,14,05,39,8.20
2015,11,14,05,40,8.20
2015,11,14,05,41,8.20
2015,11,14,05,42,8.20
2015,11,14,05,43,8.20
2015,11,14,05,44,8.20
2015,11,14,05,45,8.20
2015,11,14,05,46,8.20
2015,11,14,05,47,8.20
2015,11,14,05,48,8.20
2015,11,14,05,49,8.20
2015,11,14,05,50,8.20
2015,11,14,05,51,8.20
2015,11,14,05,52,8.20
2015,11,14,05,53,8.20
2015,11,14,05,54,8.20
2015,11,14,05,55,8.20
2015,11,14,05,56,8.20
2015,11,14,05,57,8.20
2015,11,14,05,58,8.20
2015,11,14,05,59,8.20
2015,11,14,06,00,8.20
2015,11,14,06,01,8.20
2015,11,14,06,02,8.20
2015,11,14,06,03,8.20
2015,11,14,06,04,8.20
2015,11,14,06,05,8.20
2015,11,14,06,06,8.20
2015,11,14,06,07,8.20
2015,11,14,06,08,8.20
2015,11,14,06,09,8.20
2015,11,14,06,10,8.20
2015,11,14,06,11,8.20
2015,11,14,06,12,8.20
2015,11,14,06,13,8.20
2015,11,14,06,14,8.20
2015,11,14,06,15,8.20
2015,11,14,06,16,8.20
2015,11,14,06,17,8.20
2015,11,14,06,18,8.20
2015,11,14,06,19,8.20
2015,11,14,06,20,8.20
2015,11,14,06,21,8.20
2015,11,14,06,22,8.20
2015,11,14,06,23,8.20
2015,11,14,06,24,8.20
2015,11,14,06,25,8.20
2015,11,14,06,26,8.20
2015,11,14,06,27,8.20
2015,11,14,06,28,8.20
2015,11,14,06,29,8.20
2015,11,14,06,30,8.20
2015,11,14,06,31,8.20
2015,11,14,06,32,8.20
2015,11,14,06,33,8.20
2015,11,14,06,34,8.20
2015,11,14,06,35,8.20
2015,11,14,06,36,8.20
2015,11,14,06,37,8.20
2015,11,14,06,38,8.30
2015,11,14,06,39,8.30
2015,11,14,06,40,8.30
2015,11,14,06,41,8.30
2015,11,14,06,42,8.30
2015,11,14,06,43,8.30
2015,11,14,06,44,8.30
2015,11,14,06,45,8.30
2015,11,14,06,46,8.30
2015,11,14,06,47,8.30
2015,11,14,06,48,8.30
2015,11,14,06,49,8.30
2015,11,14,06,50,8.30
2015,11,14,06,51,8.30
2015,11,14,06,52,8.30
2015,11,14,06,53,8.30
2015,11,14,06,54,8.30
2015,11,14,06,55,8.30
2015,11,14,06,56,8.30
2015,11,14,06,57,8.30
2015,11,14,06,58,8.40
2015,11,14,06,59,8.40
2015,11,14,07,00,8.40
2015,11,14,07,01,8.40
2015,11,14,07,02,8.40
2015,11,14,07,03,8.40
2015,11,14,07,04,8.40
2015,11,14,07,05,8.40
2015,11,14,07,06,8.40
2015,11,14,07,07,8.40
2015,11,14,07,08,8.40
2015,11,14,07,09,8.40
2015,11,14,07,10,8.40
2015,11,14,07,11,8.40
2015,11,14,07,12,8.30
2015,11,14,07,13,8.30
2015,11,14,07,14,8.30
2015,11,14,07,15,8.30
2015,11,14,07,16,8.30
2015,11,14,07,17,8.30
2015,11,14,07,18,8.30
2015,11,14,07,19,8.30
2015,11,14,07,20,8.30
2015,11,14,07,21,8.30
2015,11,14,07,22,8.30
2015,11,14,07,23,8.30
2015,11,14,07,24,8.20
2015,11,14,07,25,8.20
2015,11,14,07,26,8.20
2015,11,14,07,27,8.20
2015,11,14,07,28,8.20
2015,11,14,07,29,8.20
2015,11,14,07,30,8.20
2015,11,14,07,31,8.20
2015,11,14,07,32,8.20
2015,11,14,07,33,8.20
2015,11,14,07,34,8.20
2015,11,14,07,35,8.20
2015,11,14,07,36,8.20
2015,11,14,07,37,8.20
2015,11,14,07,38,8.20
2015,11,14,07,39,8.20
2015,11,14,07,40,8.20
2015,11,14,07,41,8.20
2015,11,14,07,42,8.20
2015,11,14,07,43,8.20
2015,11,14,07,44,8.20
2015,11,14,07,45,8.20
2015,11,14,07,46,8.20
2015,11,14,07,47,8.30
2015,11,14,07,48,8.30
2015,11,14,07,49,8.30
2015,11,14,07,50,8.30
2015,11,14,07,51,8.30
2015,11,14,07,52,8.30
2015,11,14,07,53,8.30
2015,11,14,07,54,8.30
2015,11,14,07,55,8.30
2015,11,14,07,56,8.30
2015,11,14,07,57,8.20
2015,11,14,07,58,8.20
2015,11,14,07,59,8.20
2015,11,14,08,00,8.20
2015,11,14,08,01,8.20
2015,11,14,08,02,8.20
2015,11,14,08,03,8.20
2015,11,14,08,04,8.20
2015,11,14,08,05,8.20
2015,11,14,08,06,8.20
2015,11,14,08,07,8.20
2015,11,14,08,08,8.20
2015,11,14,08,09,8.20
2015,11,14,08,10,8.20
2015,11,14,08,11,8.20
2015,11,14,08,12,8.20
2015,11,14,08,13,8.20
2015,11,14,08,14,8.20
2015,11,14,08,15,8.20
2015,11,14,08,16,8.20
2015,11,14,08,17,8.20
2015,11,14,08,18,8.20
2015,11,14,08,19,8.20
2015,11,14,08,20,8.20
2015,11,14,08,21,8.10
2015,11,14,08,22,8.10
2015,11,14,08,23,8.10
2015,11,14,08,24,8.10
2015,11,14,08,25,8.10
2015,11,14,08,26,8.20
2015,11,14,08,27,8.10
2015,11,14,08,28,8.10
2015,11,14,08,29,8.20
2015,11,14,08,30,8.20
2015,11,14,08,31,8.20
2015,11,14,08,32,8.20
2015,11,14,08,33,8.20
2015,11,14,08,34,8.20
2015,11,14,08,35,8.20
2015,11,14,08,36,8.20
2015,11,14,08,37,8.20
2015,11,14,08,38,8.20
2015,11,14,08,39,8.20
2015,11,14,08,40,8.20
2015,11,14,08,41,8.20
2015,11,14,08,42,8.30
2015,11,14,08,43,8.30
2015,11,14,08,44,8.30
2015,11,14,08,45,8.30
2015,11,14,08,46,8.30
2015,11,14,08,47,8.30
2015,11,14,08,48,8.30
2015,11,14,08,49,8.30
2015,11,14,08,50,8.30
2015,11,14,08,51,8.30
2015,11,14,08,52,8.40
2015,11,14,08,53,8.40
2015,11,14,08,54,8.40
2015,11,14,08,55,8.40
2015,11,14,08,56,8.40
2015,11,14,08,57,8.40
2015,11,14,08,58,8.50
2015,11,14,08,59,8.50
2015,11,14,09,00,8.50
2015,11,14,09,01,8.50
2015,11,14,09,02,8.60
2015,11,14,09,03,8.60
2015,11,14,09,04,8.60
2015,11,14,09,05,8.60
2015,11,14,09,06,8.60
2015,11,14,09,07,8.60
2015,11,14,09,08,8.60
2015,11,14,09,09,8.70
2015,11,14,09,10,8.70
2015,11,14,09,11,8.70
2015,11,14,09,12,8.70
2015,11,14,09,13,8.70
2015,11,14,09,14,8.70
2015,11,14,09,15,8.70
2015,11,14,09,16,8.70
2015,11,14,09,17,8.70
2015,11,14,09,18,8.70
2015,11,14,09,19,8.70
2015,11,14,09,20,8.80
2015,11,14,09,21,8.80
2015,11,14,09,22,8.80
2015,11,14,09,23,8.80
2015,11,14,09,24,8.80
2015,11,14,09,25,8.80
2015,11,14,09,26,8.80
2015,11,14,09,27,8.90
2015,11,14,09,28,8.90
2015,11,14,09,29,8.90
2015,11,14,09,30,8.90
2015,11,14,09,31,8.90
2015,11,14,09,32,8.90
2015,11,14,09,33,8.90
2015,11,14,09,34,8.90
2015,11,14,09,35,8.90
2015,11,14,09,36,8.90
2015,11,14,09,37,8.90
2015,11,14,09,38,8.90
2015,11,14,09,39,8.90
2015,11,14,09,40,8.90
2015,11,14,09,41,8.90
2015,11,14,09,42,8.90
2015,11,14,09,43,8.90
2015,11,14,09,44,8.90
2015,11,14,09,45,8.90
2015,11,14,09,46,8.90
2015,11,14,09,47,8.90
2015,11,14,09,48,9.00
2015,11,14,09,49,9.00
2015,11,14,09,50,9.00
2015,11,14,09,51,9.00
2015,11,14,09,52,9.00
2015,11,14,09,53,9.00
2015,11,14,09,54,9.00
2015,11,14,09,55,9.10
2015,11,14,09,56,9.10
2015,11,14,09,57,9.10
2015,11,14,09,58,9.10
2015,11,14,09,59,9.10
2015,11,14,10,00,9.10
2015,11,14,10,01,9.10
2015,11,14,10,02,9.10
2015,11,14,10,03,9.10
2015,11,14,10,04,9.10
2015,11,14,10,05,9.10
2015,11,14,10,06,9.10
2015,11,14,10,07,9.10
2015,11,14,10,08,9.10
2015,11,14,10,09,9.10
2015,11,14,10,10,9.10
2015,11,14,10,11,9.10
2015,11,14,10,12,9.10
2015,11,14,10,13,9.10
2015,11,14,10,14,9.10
2015,11,14,10,15,9.10
2015,11,14,10,16,9.10
2015,11,14,10,17,9.10
2015,11,14,10,18,9.10
2015,11,14,10,19,9.10
2015,11,14,10,20,9.10
2015,11,14,10,21,9.10
2015,11,14,10,22,9.10
2015,11,14,10,23,9.10
2015,11,14,10,24,9.10
2015,11,14,10,25,9.10
2015,11,14,10,26,9.10
2015,11,14,10,27,9.10
2015,11,14,10,28,9.10
2015,11,14,10,29,9.10
2015,11,14,10,30,9.10
2015,11,14,10,31,9.10
2015,11,14,10,32,9.10
2015,11,14,10,33,9.10
2015,11,14,10,34,9.10
2015,11,14,18,15,7.70
2015,11,14,18,16,7.70
2015,11,14,18,17,7.70
2015,11,14,18,18,7.70
2015,11,14,18,19,7.70
2015,11,14,18,20,7.70
2015,11,14,18,21,7.70
2015,11,14,18,22,7.70
2015,11,14,18,23,7.70
2015,11,14,18,24,7.70
2015,11,14,18,25,7.70
2015,11,14,18,26,7.70
2015,11,14,18,27,7.70
2015,11,14,18,28,7.70
2015,11,14,18,29,7.70
2015,11,14,18,30,7.70
2015,11,14,18,31,7.70
2015,11,14,18,32,7.70
2015,11,14,18,33,7.70
2015,11,14,18,34,7.70
2015,11,14,18,35,7.70
2015,11,14,18,36,7.70
2015,11,14,18,37,7.60
2015,11,14,18,38,7.60
2015,11,14,18,39,7.60
2015,11,14,18,40,7.60
2015,11,14,18,41,7.60
2015,11,14,18,42,7.50
2015,11,14,18,43,7.50
2015,11,14,18,44,7.50
2015,11,14,18,45,7.50
2015,11,14,18,46,7.50
2015,11,14,18,47,7.50
2015,11,14,18,48,7.50
2015,11,14,18,49,7.50
2015,11,14,18,50,7.50
2015,11,14,18,51,7.50
2015,11,14,18,52,7.50
2015,11,14,18,53,7.50
2015,11,14,18,54,7.50
2015,11,14,18,55,7.40
2015,11,14,18,56,7.40
2015,11,14,18,57,7.50
2015,11,14,18,58,7.50
2015,11,14,18,59,7.50
2015,11,14,19,00,7.50
2015,11,14,19,01,7.50
2015,11,14,19,02,7.50
2015,11,14,19,03,7.40
2015,11,14,19,04,7.40
2015,11,14,19,05,7.40
2015,11,14,19,06,7.40
2015,11,14,19,07,7.40
2015,11,14,19,08,7.40
2015,11,14,19,09,7.40
2015,11,14,19,10,7.40
2015,11,14,19,11,7.50
2015,11,14,19,12,7.50
2015,11,14,19,13,7.50
2015,11,14,19,14,7.50
2015,11,14,19,15,7.40
2015,11,14,19,16,7.40
2015,11,14,19,17,7.40
2015,11,14,19,18,7.40
2015,11,14,19,19,7.40
2015,11,14,19,20,7.40
2015,11,14,19,21,7.40
2015,11,14,19,22,7.40
2015,11,14,19,23,7.40
2015,11,14,19,24,7.40
2015,11,14,19,25,7.40
2015,11,14,19,26,7.40
2015,11,14,19,27,7.40
2015,11,14,19,28,7.40
2015,11,14,19,29,7.40
2015,11,14,19,30,7.30
2015,11,14,19,31,7.30
2015,11,14,19,32,7.30
2015,11,14,19,33,7.30
2015,11,14,19,34,7.30
2015,11,14,19,35,7.30
2015,11,14,19,36,7.30
2015,11,14,19,37,7.30
2015,11,14,19,38,7.30
2015,11,14,19,39,7.30
2015,11,14,19,40,7.30
2015,11,14,19,41,7.30
2015,11,14,19,42,7.30
2015,11,14,19,43,7.30
2015,11,14,19,44,7.30
2015,11,14,19,45,7.30
2015,11,14,19,46,7.30
2015,11,14,19,47,7.30
2015,11,14,19,48,7.20
2015,11,14,19,49,7.20
2015,11,14,19,50,7.20
2015,11,14,19,51,7.20
2015,11,14,19,52,7.20
2015,11,14,19,53,7.20
2015,11,14,19,54,7.20
2015,11,14,19,55,7.20
2015,11,14,19,56,7.20
2015,11,14,19,57,7.20
2015,11,14,19,58,7.20
2015,11,14,19,59,7.20
2015,11,14,20,00,7.30
2015,11,14,20,01,7.30
2015,11,14,20,02,7.30
2015,11,14,20,03,7.30
2015,11,14,20,04,7.30
2015,11,14,20,05,7.30
2015,11,14,20,06,7.30
2015,11,14,20,07,7.30
2015,11,14,20,08,7.30
2015,11,14,20,09,7.30
2015,11,14,20,10,7.30
2015,11,14,20,11,7.30
2015,11,14,20,12,7.20
2015,11,14,20,13,7.20
2015,11,14,20,14,7.20
2015,11,14,20,15,7.20
2015,11,14,20,16,7.20
2015,11,14,20,17,7.20
2015,11,14,20,18,7.20
2015,11,14,20,19,7.20
2015,11,14,20,20,7.20
2015,11,14,20,21,7.10
2015,11,14,20,22,7.10
2015,11,14,20,23,7.10
2015,11,14,20,24,7.10
2015,11,14,20,25,7.10
2015,11,14,20,26,7.10
2015,11,14,20,27,7.10
2015,11,14,20,28,7.10
2015,11,14,20,29,7.10
2015,11,14,20,30,7.10
2015,11,14,20,31,7.10
2015,11,14,20,32,7.10
2015,11,14,20,33,7.10
2015,11,14,20,34,7.10
2015,11,14,20,35,7.10
2015,11,14,20,36,7.10
2015,11,14,20,37,7.10
2015,11,14,20,38,7.00
2015,11,14,20,39,7.00
2015,11,14,20,40,7.00
2015,11,14,20,41,7.00
2015,11,14,20,42,7.00
2015,11,14,20,43,7.00
2015,11,14,20,44,6.90
2015,11,14,20,45,6.90
2015,11,14,20,46,6.90
2015,11,14,20,47,6.90
2015,11,14,20,48,6.90
2015,11,14,20,49,6.90
2015,11,14,20,50,6.90
2015,11,14,20,51,6.90
2015,11,14,20,52,6.90
2015,11,14,20,53,6.90
2015,11,14,20,54,6.90
2015,11,14,20,55,6.90
2015,11,14,20,56,6.90
2015,11,14,20,57,6.90
2015,11,14,20,58,6.90
2015,11,14,20,59,6.90
2015,11,14,21,32,6.50
2015,11,14,21,33,6.50
2015,11,14,21,34,6.50
2015,11,14,21,35,6.50
2015,11,14,21,36,6.50
2015,11,14,21,37,6.50
2015,11,14,21,38,6.50
2015,11,14,21,39,6.50
2015,11,14,21,40,6.50
2015,11,14,21,41,6.50
2015,11,14,21,42,6.50
2015,11,14,21,43,6.50
2015,11,14,21,44,6.50
2015,11,14,21,45,6.50
2015,11,14,21,46,6.50
2015,11,14,21,47,6.50
2015,11,14,21,48,6.50
2015,11,14,21,49,6.50
2015,11,14,21,50,6.40
2015,11,14,21,51,6.40
2015,11,14,21,52,6.40
2015,11,14,21,53,6.40
2015,11,14,21,54,6.40
2015,11,14,21,55,6.40
2015,11,14,21,56,6.40
2015,11,14,21,57,6.40
2015,11,14,21,58,6.40
2015,11,14,21,59,6.30
2015,11,14,22,00,6.30
2015,11,14,22,01,6.30
2015,11,14,22,02,6.30
2015,11,14,22,03,6.30
2015,11,14,22,04,6.30
2015,11,14,22,05,6.30
2015,11,14,22,06,6.30
2015,11,14,22,07,6.20
2015,11,14,22,08,6.20
2015,11,14,22,09,6.20
2015,11,14,22,10,6.20
2015,11,14,22,11,6.20
2015,11,14,22,12,6.20
2015,11,14,22,13,6.20
2015,11,14,22,14,6.20
2015,11,14,22,15,6.20
2015,11,14,22,16,6.20
2015,11,14,22,17,6.20
2015,11,14,22,18,6.20
2015,11,14,22,19,6.20
2015,11,14,22,20,6.20
2015,11,14,22,21,6.20
2015,11,14,22,22,6.20
2015,11,14,22,23,6.20
2015,11,14,22,24,6.20
2015,11,14,22,25,6.20
2015,11,14,22,26,6.20
2015,11,14,22,27,6.20
2015,11,14,22,28,6.20
2015,11,14,22,29,6.20
2015,11,14,22,30,6.20
2015,11,14,22,31,6.10
2015,11,14,22,32,6.10
2015,11,14,22,33,6.10
2015,11,14,22,34,6.10
2015,11,14,22,35,6.10
2015,11,14,22,36,6.10
2015,11,14,22,37,6.10
2015,11,14,22,38,6.10
2015,11,14,22,39,6.10
2015,11,14,22,40,6.10
2015,11,14,22,41,6.10
2015,11,14,22,42,6.10
2015,11,14,22,43,6.10
2015,11,14,22,44,6.10
2015,11,14,22,45,6.10
2015,11,14,22,46,6.10
2015,11,14,22,47,6.00
2015,11,14,22,48,6.00
2015,11,14,22,49,6.00
2015,11,14,22,50,6.00
2015,11,14,22,51,6.00
2015,11,14,22,52,6.00
2015,11,14,22,53,6.00
2015,11,14,22,54,6.00
2015,11,14,22,55,6.00
2015,11,14,22,56,6.00
2015,11,14,22,57,5.90
2015,11,14,22,58,5.90
2015,11,14,22,59,5.90
2015,11,14,23,00,5.90
2015,11,14,23,01,5.90
2015,11,14,23,02,5.90
2015,11,14,23,03,5.90
2015,11,14,23,04,5.90
2015,11,14,23,05,5.90
2015,11,14,23,06,5.90
2015,11,14,23,07,5.90
2015,11,14,23,08,5.90
2015,11,14,23,09,5.90
2015,11,14,23,10,5.90
2015,11,14,23,11,5.90
2015,11,14,23,12,5.90
2015,11,14,23,13,5.90
2015,11,14,23,14,5.90
2015,11,14,23,15,5.90
2015,11,14,23,16,5.90
2015,11,14,23,17,6.00
2015,11,14,23,18,5.90
2015,11,14,23,19,5.90
2015,11,14,23,20,5.90
2015,11,14,23,21,5.90
2015,11,14,23,22,5.90
2015,11,14,23,23,5.90
2015,11,14,23,24,5.90
2015,11,14,23,25,5.90
2015,11,14,23,26,5.90
2015,11,14,23,27,5.90
2015,11,14,23,28,5.90
2015,11,14,23,29,5.90
2015,11,14,23,30,5.90
2015,11,14,23,31,5.90
2015,11,14,23,32,5.90
2015,11,14,23,33,5.80
2015,11,14,23,34,5.80
2015,11,14,23,35,5.80
2015,11,14,23,36,5.80
2015,11,14,23,37,5.80
2015,11,14,23,38,5.80
2015,11,14,23,39,5.80
2015,11,14,23,40,5.80
2015,11,14,23,41,5.70
2015,11,14,23,42,5.70
2015,11,14,23,43,5.70
2015,11,14,23,44,5.70
2015,11,14,23,45,5.70
2015,11,14,23,46,5.70
2015,11,14,23,47,5.70
2015,11,14,23,48,5.70
2015,11,14,23,49,5.70
2015,11,14,23,50,5.70
2015,11,14,23,51,5.70
2015,11,14,23,52,5.80
2015,11,14,23,53,5.70
2015,11,14,23,54,5.70
2015,11,14,23,55,5.80
2015,11,14,23,56,5.80
2015,11,14,23,57,5.80
2015,11,14,23,58,5.80
2015,11,14,23,59,5.80
